METAR AND TAF INFORMATION
METAR FOR LTAG
ADDS - METARS form results

(0843 UTC 16 December 2019)
Data provider http://aviationweather.gov/metar/data/
 
METAR text: LTAG 160820Z 08003KT CAVOK 16/09 Q1024 NOSIG
Conditions at: LTAG (ADANA/INCIRLIK A, TR) observed 0820 UTC 16 December 2019
Temperature: 16.0°C (61°F)
Dewpoint: 9.0°C (48°F) [RH = 63%]
Pressure (altimeter): 30.24 inches Hg (1024.0 mb)
Winds: from the E (80 degrees) at 3 MPH (3 knots; 1.5 m/s)
Visibility: 6 or more miles (10+ km)
Ceiling: ceiling and visibility are OK
Clouds: unknown
Weather: no significant weather observed at this time

METAR text: LTAG 160750Z 06002KT CAVOK 15/10 Q1024 NOSIG
Conditions at: LTAG (ADANA/INCIRLIK A, TR) observed 0750 UTC 16 December 2019
Temperature: 15.0°C (59°F)
Dewpoint: 10.0°C (50°F) [RH = 72%]
Pressure (altimeter): 30.24 inches Hg (1024.0 mb)
Winds: from the ENE (60 degrees) at 2 MPH (2 knots; 1.0 m/s)
Visibility: 6 or more miles (10+ km)
Ceiling: ceiling and visibility are OK
Clouds: unknown
Weather: no significant weather observed at this time

Forecast for: LTAG (ADANA/INCIRLIK A, TR)
Text: TAF LTAG 160440Z 1606/1706 VRB02KT CAVOK
Forecast period: 0600 UTC 16 December 2019 to 0600 UTC 17 December 2019
Forecast type: FROM: standard forecast or significant change
Winds: variable direction winds at 2 MPH (2 knots; 1.0 m/s)
Visibility: 6 or more miles 10+ km)
Ceiling: unknown
Clouds: missing
Weather: NSW  (no significant weather)

 AIRPORT MAP

 RUNWAY INFORMATION
Runway 05 Runway length 10000 ft Runway width 148 ft
Runway elevation 175 ft Runway displaced threshold 0 ft Runway heading 53
Runway 23 Runway length 10000 ft Runway width 148 ft
Runway elevation 238 ft Runway displaced threshold 0 ft Runway heading 233

 AIRPORT FREQUENCIES
Type A/D Name APP Frequency 128 MHZ
Type AC Name ARRIVAL Frequency 26.262 MHZ
Type ACP Name AMC AIRLIF Frequency 37.985 MHZ
Type ATIS Name ATIS Frequency 37.822 MHZ
Type GND Name GND Frequency 123.025 MHZ
Type OPS Name OPC MSN DR Frequency 31.54 MHZ
Type PAR Name PERCISION Frequency 34.187 MHZ
Type PMSV Name PMSV METRO Frequency 28.442 MHZ
Type POST Name COMD POST Frequency 31.54 MHZ
Type PTD Name DISPATCH Frequency 33.905 MHZ
Type SF Name SUPERVISOR Frequency 27.54 MHZ
Type SFA Name SINGLE FRE Frequency 37.822 MHZ
Type TAFR Name TUAF RAPCO Frequency 23.512 MHZ
Type TWR Name TWR Frequency 129.4 MHZ

 AIRPORT NEAR NAVIGATION AIDS
Type TACAN Name Incirlik Frequency 108400 KHZ